Weather History for Sanford, ME

Change the Weather History Date:

Friday, February 1, 2013

  Actual Average Record
Temperature  
Mean Temperature 22 °F -  
Max Temperature 28 °F 30 °F 46 °F (1999)
Min Temperature 17 °F 10 °F -7 °F (2005)
Degree Days  
Heating Degree Days 42    
Moisture  
Dew Point 6 °F    
Average Humidity 46    
Maximum Humidity 74    
Minimum Humidity 31    
Precipitation  
Precipitation 0.00 in - - ()
Sea Level Pressure  
Sea Level Pressure 29.74 in    
Wind  
Wind Speed 15 mph (West)    
Max Wind Speed 23 mph    
Max Gust Speed 41 mph    
Visibility 10 miles    
Events      
Averages and records for this station are not official NWS values.
T = Trace of Precipitation, MM = Missing Value Source: NWS Daily Summary

Daily Weather History Graph

Daily Weather History Graph

Search for Another Location

Airport:

Trip Planner

Search our weather history database for the weather conditions in past years. The results will help you decide how hot, cold, wet, or windy it might be!

Date:

Astronomy

Feb. 01, 2013 Rise Set
Actual Time 6:58 AM EST 4:54 PM EST
Civil Twilight 6:28 AM EST 5:25 PM EST
Nautical Twilight 5:54 AM EST 5:59 PM EST
Astronomical Twilight 5:20 AM EST 6:32 PM EST
Moon 11:11 PM EST (2/1) 9:18 AM EST (2/1)
Length of Visible Light 10h 57m
Length of Day
9h 56m
Waning Gibbous, 70% of the Moon is Illuminated
Feb 1
Waning Gibbous
Feb 3
Last Quarter
Feb 10
New
Feb 17
First Quarter
Feb 25
Full

Hourly Weather History & Observations

Time (EST) Temp. Windchill Dew Point Humidity Pressure Visibility Wind Dir Wind Speed Gust Speed Precip Events Conditions
12:15 AM 28.4 °F 14.4 °F 5.0 °F 37% 29.47 in 10.0 mi West 23.0 mph 31.1 mph N/A   Clear
12:35 AM 28.4 °F 14.7 °F 3.2 °F 34% 29.48 in 10.0 mi West 21.9 mph 41.4 mph N/A   Clear
1:15 AM 28.4 °F 16.6 °F 5.0 °F 37% 29.50 in 10.0 mi WSW 16.1 mph 23.0 mph N/A   Clear
1:35 AM 28.4 °F 15.8 °F 3.2 °F 34% 29.50 in 10.0 mi West 18.4 mph 27.6 mph N/A   Clear
2:15 AM 28.4 °F 17.0 °F 3.2 °F 34% 29.51 in 10.0 mi West 15.0 mph 23.0 mph N/A   Scattered Clouds
2:35 AM 28.4 °F 18.5 °F 8.6 °F 43% 29.53 in 10.0 mi WNW 11.5 mph 19.6 mph N/A   Mostly Cloudy
2:55 AM 26.6 °F 15.7 °F 10.4 °F 51% 29.54 in 10.0 mi WNW 12.7 mph 20.7 mph N/A   Mostly Cloudy
3:15 AM 26.6 °F 15.7 °F 12.2 °F 55% 29.54 in 10.0 mi West 12.7 mph 23.0 mph N/A   Mostly Cloudy
3:35 AM 24.8 °F 14.0 °F 15.8 °F 69% 29.55 in 10.0 mi WNW 11.5 mph 21.9 mph N/A   Partly Cloudy
3:55 AM 24.8 °F 12.9 °F 10.4 °F 54% 29.56 in 10.0 mi West 13.8 mph 23.0 mph N/A   Mostly Cloudy
4:15 AM 24.8 °F 13.4 °F 17.6 °F 74% 29.56 in 10.0 mi West 12.7 mph 23.0 mph N/A   Mostly Cloudy
4:35 AM 24.8 °F 12.9 °F 12.2 °F 59% 29.57 in 10.0 mi West 13.8 mph 20.7 mph N/A   Scattered Clouds
4:55 AM 24.8 °F 13.4 °F 15.8 °F 69% 29.58 in 5.0 mi WSW 12.7 mph 21.9 mph N/A   Mostly Cloudy
5:15 AM 24.8 °F 14.6 °F 15.8 °F 69% 29.58 in 10.0 mi West 10.4 mph - N/A   Overcast
5:35 AM 24.8 °F 13.4 °F 12.2 °F 59% 29.59 in 7.0 mi WSW 12.7 mph - N/A   Overcast
6:15 AM 24.8 °F 14.0 °F 8.6 °F 50% 29.61 in 10.0 mi West 11.5 mph 18.4 mph N/A   Partly Cloudy
6:35 AM 23.0 °F 12.4 °F 15.8 °F 74% 29.62 in 10.0 mi SW 10.4 mph - N/A   Clear
6:55 AM 23.0 °F 12.4 °F 10.4 °F 59% 29.62 in 10.0 mi WSW 10.4 mph - N/A   Clear
7:15 AM 23.0 °F 11.1 °F 12.2 °F 63% 29.63 in 10.0 mi WSW 12.7 mph - N/A   Clear
7:35 AM 24.8 °F 13.4 °F 12.2 °F 59% 29.63 in 10.0 mi WSW 12.7 mph - N/A   Clear
8:15 AM 26.6 °F 14.3 °F 8.6 °F 47% 29.66 in 10.0 mi West 16.1 mph 26.5 mph N/A   Clear
8:55 AM 26.6 °F 13.4 °F 8.6 °F 47% 29.68 in 10.0 mi West 18.4 mph 27.6 mph N/A   Mostly Cloudy
9:15 AM 26.6 °F 13.4 °F 5.0 °F 40% 29.69 in 10.0 mi WSW 18.4 mph 32.2 mph N/A   Overcast
9:35 AM 26.6 °F 12.7 °F 6.8 °F 43% 29.70 in 10.0 mi West 20.7 mph 29.9 mph N/A   Overcast
9:56 AM 26.6 °F 13.8 °F 6.8 °F 43% 29.71 in 10.0 mi West 17.3 mph 29.9 mph N/A   Overcast
10:15 AM 26.6 °F 13.4 °F 5.0 °F 40% 29.73 in 10.0 mi WNW 18.4 mph 27.6 mph N/A   Overcast
10:35 AM 26.6 °F 14.7 °F 8.6 °F 47% 29.74 in 10.0 mi West 15.0 mph 23.0 mph N/A   Overcast
10:55 AM 26.6 °F 14.7 °F 3.2 °F 37% 29.74 in 10.0 mi NW 15.0 mph 25.3 mph N/A   Overcast
11:15 AM 26.6 °F 15.2 °F 6.8 °F 43% 29.74 in 10.0 mi WNW 13.8 mph 23.0 mph N/A   Overcast
11:55 AM 28.4 °F 15.1 °F 1.4 °F 31% 29.73 in 10.0 mi West 20.7 mph 27.6 mph N/A   Mostly Cloudy
12:15 PM 28.4 °F 15.8 °F 6.8 °F 40% 29.73 in 10.0 mi NW 18.4 mph 26.5 mph N/A   Mostly Cloudy
12:35 PM 28.4 °F 18.5 °F 3.2 °F 34% 29.73 in 10.0 mi WNW 11.5 mph 21.9 mph N/A   Partly Cloudy
1:15 PM 28.4 °F 15.8 °F 5.0 °F 37% 29.71 in 10.0 mi West 18.4 mph 26.5 mph N/A   Partly Cloudy
1:35 PM 28.4 °F 16.6 °F 3.2 °F 34% 29.71 in 10.0 mi West 16.1 mph 24.2 mph N/A   Clear
1:55 PM 28.4 °F 15.4 °F 6.8 °F 40% 29.71 in 10.0 mi WNW 19.6 mph 24.2 mph N/A   Clear
2:15 PM 28.4 °F 16.2 °F 5.0 °F 37% 29.72 in 10.0 mi WNW 17.3 mph 28.8 mph N/A   Clear
2:35 PM 28.4 °F 18.5 °F 3.2 °F 34% 29.73 in 10.0 mi WNW 11.5 mph 24.2 mph N/A   Scattered Clouds
2:55 PM 28.4 °F 17.0 °F 5.0 °F 37% 29.74 in 10.0 mi NW 15.0 mph 21.9 mph N/A   Mostly Cloudy
3:15 PM 28.4 °F 15.4 °F 3.2 °F 34% 29.74 in 10.0 mi WNW 19.6 mph 24.2 mph N/A   Mostly Cloudy
3:35 PM 28.4 °F 19.7 °F 1.4 °F 31% 29.76 in 10.0 mi WNW 9.2 mph 19.6 mph N/A   Partly Cloudy
4:15 PM 26.6 °F 15.7 °F 3.2 °F 37% 29.78 in 10.0 mi NW 12.7 mph 18.4 mph N/A   Mostly Cloudy
4:35 PM 26.6 °F 14.7 °F 1.4 °F 34% 29.79 in 10.0 mi WNW 15.0 mph 20.7 mph N/A   Partly Cloudy
5:15 PM 24.8 °F 13.4 °F 3.2 °F 40% 29.82 in 10.0 mi WNW 12.7 mph 19.6 mph N/A   Clear
5:35 PM 23.0 °F 9.2 °F 1.4 °F 39% 29.84 in 10.0 mi WNW 17.3 mph 21.9 mph N/A   Clear
5:55 PM 23.0 °F 11.7 °F 3.2 °F 43% 29.87 in 10.0 mi WNW 11.5 mph 19.6 mph N/A   Clear
6:15 PM 21.2 °F 8.3 °F 1.4 °F 42% 29.89 in 10.0 mi WNW 13.8 mph 19.6 mph N/A   Clear
6:35 PM 21.2 °F 8.3 °F 1.4 °F 42% 29.90 in 10.0 mi WNW 13.8 mph 25.3 mph N/A   Clear
6:55 PM 21.2 °F 7.3 °F -0.4 °F 39% 29.92 in 10.0 mi WNW 16.1 mph 20.7 mph N/A   Clear
7:15 PM 19.4 °F 8.6 °F 1.4 °F 46% 29.93 in 10.0 mi WNW 9.2 mph - N/A   Clear
7:35 PM 19.4 °F 7.9 °F 1.4 °F 46% 29.94 in 10.0 mi WNW 10.4 mph 25.3 mph N/A   Mostly Cloudy
7:55 PM 19.4 °F 9.5 °F 1.4 °F 46% 29.95 in 10.0 mi West 8.1 mph - N/A   Overcast
8:15 PM 19.4 °F 9.5 °F 3.2 °F 49% 29.95 in 10.0 mi West 8.1 mph - N/A   Scattered Clouds
8:35 PM 19.4 °F 8.6 °F 1.4 °F 46% 29.96 in 10.0 mi West 9.2 mph - N/A   Clear
8:55 PM 19.4 °F 10.4 °F 3.2 °F 49% 29.97 in 10.0 mi WNW 6.9 mph - N/A   Partly Cloudy
9:15 PM 19.4 °F 9.5 °F 1.4 °F 46% 29.97 in 10.0 mi WNW 8.1 mph - N/A   Mostly Cloudy
9:55 PM 19.4 °F 8.6 °F 1.4 °F 46% 29.99 in 10.0 mi WNW 9.2 mph - N/A   Overcast
10:15 PM 17.6 °F 9.3 °F -0.4 °F 45% 30.00 in 10.0 mi West 5.8 mph - N/A   Mostly Cloudy
10:35 PM 17.6 °F 8.2 °F 1.4 °F 49% 30.00 in 10.0 mi WNW 6.9 mph - N/A   Partly Cloudy
10:55 PM 17.6 °F 7.3 °F -0.4 °F 45% 30.00 in 10.0 mi West 8.1 mph - N/A   Clear
11:15 PM 17.6 °F 6.4 °F 1.4 °F 49% 30.01 in 10.0 mi WNW 9.2 mph - N/A   Clear
11:35 PM 17.6 °F 9.3 °F -0.4 °F 45% 30.02 in 10.0 mi West 5.8 mph - N/A   Clear
11:55 PM 17.6 °F 7.3 °F 1.4 °F 49% 30.03 in 10.0 mi West 8.1 mph - N/A   Clear